[[{"header":{"parameterUnit":"m.s-1","parameterCategory":1,"la1":30.2991,"la2":30.254,"lo1":-89.0895,"lo2":-89.0444,"dx":0.0017,"dy":0.0017,"nx":28,"ny":28,"refTime":"2022-12-14T15:00:00:Z","depth":0,"parameterNumber":2,"parameterNumberName":"U-component_of_WINDS"},"data":[0,0,0,0,0,0,0,0,0,0,0,0,0,0,0,0,0,0,0,0,0,0,0,0,0,0,0,0,0,0,0,0,0,0,0,0,0,0,0,0,0,0,0,0,0,0,0,0,0,0,0,0,0,0,0,0,0,0,2.9618,2.9619,0,2.9703,2.9704,2.9705,2.9658,2.9655,2.9653,2.9651,2.9738,2.9742,2.9747,0,0,0,0,0,0,0,0,0,0,0,0,0,2.9415,2.9419,2.9618,2.9619,2.962,2.9703,2.9704,2.9705,2.9658,2.9655,2.9652,2.965,2.9736,2.9742,2.9747,0,0,0,0,0,0,0,0,0,0,0,0,0,2.9502,2.942,2.9618,2.9607,2.9606,2.9702,2.9704,2.9705,2.9659,2.9655,2.9652,2.9648,2.9735,2.9741,2.9748,2.986,0,0,2.9768,2.9771,0,0,0,0,0,0,0,0,2.9497,2.9509,2.9607,2.9608,2.9608,2.9666,2.9664,2.9757,2.966,2.9639,2.9651,2.9647,2.9717,2.9725,2.9748,2.9864,2.9867,2.9769,2.9773,2.9776,2.9778,0,0,0,0,0,0,0,2.9491,2.9506,2.9651,2.9609,2.9609,2.9597,2.9606,2.9682,2.9696,2.964,2.9637,2.9648,2.9716,2.9742,2.975,2.9869,2.9769,2.9775,2.9779,2.9782,3.0079,3.0083,0,0,0,0,0,0,2.9486,2.9501,2.9649,2.9654,2.9543,2.9604,2.9613,2.9651,2.9695,2.9699,2.9651,2.9645,2.9732,2.9742,2.9753,2.9886,2.9776,2.9782,2.9786,3.0075,3.008,3.0084,0,0,0,0,0,0,2.9482,2.9499,2.9645,2.9577,2.9594,2.9611,2.9654,2.9654,2.968,2.9703,2.9706,2.9674,2.973,2.9743,2.9833,2.9889,2.9785,2.9791,3.0071,3.0077,3.0082,3.0154,0,0,0,0,0,0,2.9476,2.9498,2.9541,2.9578,2.9598,2.9725,2.9657,2.9659,2.9692,2.9686,2.9726,2.9729,2.9728,2.9823,2.984,2.9896,2.9797,3.0066,3.0074,3.008,3.0147,3.0162,3.0174,0,0,0,0,0,2.9469,2.9558,2.9543,2.9561,2.9652,2.9728,2.9739,2.9736,2.9697,2.9739,2.9754,2.9728,2.988,2.9833,2.9851,2.991,3.0062,3.0071,3.008,3.0141,3.0159,3.0174,0,0,0,0,0,0,2.9527,2.9562,2.9547,2.965,2.9686,2.972,2.9774,2.9755,2.9803,2.9795,2.9789,2.9799,2.9892,2.991,2.9857,3.002,2.9965,2.9978,3.0005,3.0022,3.0036,3.0029,2.9802,0,0,0,0,0,2.9552,2.961,2.9638,2.9727,2.9746,2.9757,2.979,2.9784,2.9821,2.9836,2.9858,2.9895,2.9951,2.9988,3.004,3.0149,3.0157,3.0199,3.0213,3.0224,3.0235,3.0293,3.0312,3.0113,3.0113,3.0113,0,0,2.9604,2.963,2.9668,2.9739,2.9767,2.9827,2.977,2.9837,2.9882,2.9846,2.9932,2.995,2.999,3.009,3.0135,3.0108,3.0291,3.0235,3.0244,3.0248,3.0304,3.0323,3.0339,3.0119,3.0118,3.0117,0,0,2.9729,2.9755,2.9832,2.986,2.9902,2.9909,2.9928,2.9964,2.9974,3.006,3.0035,3.0088,3.0185,3.0215,3.0243,3.038,3.0357,3.0397,3.0469,3.0526,3.0541,3.0555,3.0603,3.0621,3.0408,3.0409,3.0409,0,2.9788,2.9878,2.9873,2.9942,2.9974,2.9945,3.0022,3.005,3.0108,3.0131,3.01,3.022,3.0246,3.0352,3.0385,3.0409,3.0429,3.0392,3.054,3.0553,3.0566,3.0612,3.063,3.0413,3.0413,3.0412,3.0412,0,2.9949,3.0012,3.0069,3.0125,3.0163,3.0236,3.0242,3.0282,3.0273,3.0283,3.0371,3.0401,3.0459,3.0484,3.0476,3.0589,3.057,3.054,3.0484,3.059,3.0633,3.065,3.042,3.0418,3.0417,3.0415,0,0,3.0112,3.0165,3.0185,3.021,3.0255,3.0303,3.0375,3.0432,3.0466,3.0506,3.0566,3.0648,3.062,3.0652,3.0647,3.0697,3.0803,3.066,3.0661,3.0685,3.0929,3.0951,3.0971,3.0789,3.0792,3.0795,3.0925,0,3.024,3.0365,3.0362,3.0478,3.0536,3.0509,3.0572,3.0605,3.0617,3.0668,3.068,3.0739,3.0698,3.0716,3.0765,3.078,3.0852,3.0771,3.0843,3.0846,3.0833,3.0994,3.1017,3.1138,3.0942,3.0945,3.0947,0,3.0405,3.0451,3.0573,3.0608,3.0633,3.0689,3.074,3.0789,3.0827,3.0832,3.0868,3.0855,3.0927,3.087,3.0969,3.0914,3.0944,3.0956,3.0961,3.0966,3.0902,3.1003,3.1177,3.1195,3.0973,3.0971,3.0969,0,3.0512,3.0604,3.0688,3.0711,3.0754,3.0794,3.0814,3.0849,3.0883,3.0928,3.095,3.1004,3.1033,3.1074,3.1076,3.1034,3.1176,3.1119,3.1181,3.1182,3.1212,3.121,3.1392,3.1233,3.1233,3.1232,3.1232,0,3.0654,3.0729,3.0736,3.0788,3.0872,3.0868,3.0951,3.0967,3.0998,3.1053,3.1033,3.1085,3.1085,3.1137,3.1139,3.1221,3.1234,3.124,3.1239,3.1241,3.124,3.1259,3.1251,3.1237,3.1236,3.1235,3.1234,0,3.0786,3.0794,3.0884,3.0919,3.0929,3.0989,3.1018,3.1067,3.1077,3.1146,3.1162,3.1177,3.1238,3.1244,3.1315,3.1316,3.1414,3.1405,3.1401,3.14,3.1461,3.1455,3.1662,3.1688,3.1513,3.1514,3.1516,0,3.0876,3.0933,3.0973,3.1008,3.1031,3.1087,3.1122,3.1121,3.1158,3.1205,3.1249,3.1308,3.1355,3.1453,3.147,3.1524,3.1515,3.1584,3.1523,3.1523,3.1515,3.1511,3.1517,3.1596,3.1598,3.1599,3.16,0,3.1034,3.1035,3.1086,3.1139,3.1181,3.1222,3.1261,3.129,3.1294,3.1337,3.1398,3.1435,3.1507,3.1565,3.1618,3.1639,3.162,3.162,3.1637,3.1638,3.1633,3.1636,3.1432,3.1615,3.1613,3.1612,3.1611,3.1611,3.1147,3.1197,3.1233,3.129,3.1319,3.1355,3.1403,3.1419,3.147,3.1528,3.1525,3.1593,3.1629,3.1698,3.1723,3.1776,3.1753,3.1778,3.1784,3.179,3.1795,3.1626,3.1785,3.1785,3.1785,3.1784,3.1784,0,3.1304,3.1326,3.1378,3.1433,3.1478,3.1457,3.1498,3.1537,3.1597,3.1633,3.1679,3.175,3.1806,3.1828,3.1883,3.1921,3.1914,3.1936,3.1932,3.1937,3.1813,3.1793,3.1941,3.1941,3.1941,3.1941,3.194,3.194,3.139,3.1472,3.1478,3.1574,3.1595,3.1661,3.1687,3.172,3.1748,3.1828,3.1875,3.1889,3.1919,3.1976,3.2026,3.2031,3.2052,3.2077,3.2078,3.1962,3.1946,3.1931,3.1911,3.2082,3.2082,3.2198,3.2199,3.22]},{"header":{"parameterUnit":"m.s-1","parameterCategory":1,"la1":30.2991,"la2":30.254,"lo1":-89.0895,"lo2":-89.0444,"dx":0.0017,"dy":0.0017,"nx":28,"ny":28,"refTime":"2022-12-14T15:00:00:Z","depth":0,"parameterNumber":3,"parameterNumberName":"V-component_of_WINDS"},"data":[0,0,0,0,0,0,0,0,0,0,0,0,0,0,0,0,0,0,0,0,0,0,0,0,0,0,0,0,0,0,0,0,0,0,0,0,0,0,0,0,0,0,0,0,0,0,0,0,0,0,0,0,0,0,0,0,0,0,-2.0127,-2.0128,0,-2.0216,-2.0217,-2.0218,-2.0222,-2.0221,-2.022,-2.0219,-2.031,-2.0313,-2.0317,0,0,0,0,0,0,0,0,0,0,0,0,0,-1.996,-1.9963,-2.0127,-2.0128,-2.0129,-2.0216,-2.0217,-2.0218,-2.0222,-2.0221,-2.0219,-2.0218,-2.0309,-2.0313,-2.0317,0,0,0,0,0,0,0,0,0,0,0,0,0,-2.0039,-1.9964,-2.0127,-2.0142,-2.0144,-2.0216,-2.0217,-2.0219,-2.0222,-2.0221,-2.0219,-2.0218,-2.0307,-2.0312,-2.0317,-2.0381,0,0,-2.0333,-2.0335,0,0,0,0,0,0,0,0,-2.0034,-2.0045,-2.0138,-2.0141,-2.0143,-2.0206,-2.0192,-2.0273,-2.0223,-2.0192,-2.0219,-2.0217,-2.0277,-2.0284,-2.0304,-2.0385,-2.0389,-2.0333,-2.0337,-2.0339,-2.034,0,0,0,0,0,0,0,-2.0029,-2.0041,-2.0162,-2.014,-2.0143,-2.0144,-2.0153,-2.0207,-2.0242,-2.0195,-2.0195,-2.0206,-2.0278,-2.0299,-2.0307,-2.039,-2.0333,-2.0338,-2.0341,-2.0343,-2.0526,-2.0528,0,0,0,0,0,0,-2.0021,-2.0037,-2.0159,-2.0165,-2.0084,-2.0148,-2.0158,-2.0188,-2.0242,-2.0249,-2.0207,-2.0206,-2.0291,-2.0301,-2.031,-2.0387,-2.0339,-2.0343,-2.0346,-2.0524,-2.0527,-2.0529,0,0,0,0,0,0,-2.0017,-2.0032,-2.0156,-2.0101,-2.0117,-2.0152,-2.0185,-2.019,-2.0212,-2.0251,-2.0257,-2.0223,-2.0291,-2.0303,-2.0363,-2.039,-2.0346,-2.035,-2.0522,-2.0525,-2.0528,-2.0541,0,0,0,0,0,0,-2.0012,-2.003,-2.0055,-2.0102,-2.012,-2.0208,-2.0187,-2.0193,-2.0221,-2.022,-2.0267,-2.0274,-2.029,-2.0355,-2.0368,-2.0396,-2.0354,-2.052,-2.0524,-2.0527,-2.0539,-2.0544,-2.0549,0,0,0,0,0,-2.0006,-2.0055,-2.0056,-2.0071,-2.0151,-2.0209,-2.022,-2.0237,-2.0223,-2.0248,-2.0273,-2.0272,-2.0385,-2.0361,-2.0376,-2.0406,-2.0518,-2.0523,-2.0526,-2.0536,-2.0543,-2.0549,0,0,0,0,0,0,-2.0011,-2.0062,-2.0063,-2.0129,-2.0164,-2.021,-2.0241,-2.0244,-2.0285,-2.0282,-2.0303,-2.0314,-2.0373,-2.0396,-2.0368,-2.0469,-2.045,-2.0457,-2.0452,-2.0459,-2.0464,-2.0457,-2.0359,0,0,0,0,0,-2.0019,-2.0062,-2.0104,-2.0158,-2.0176,-2.0206,-2.0232,-2.0242,-2.028,-2.0295,-2.0325,-2.0362,-2.0405,-2.0434,-2.0476,-2.0542,-2.0552,-2.057,-2.0575,-2.0579,-2.0585,-2.0621,-2.0629,-2.0542,-2.0542,-2.0542,0,0,-2.0038,-2.0071,-2.0097,-2.016,-2.0189,-2.0233,-2.0218,-2.0265,-2.0298,-2.0303,-2.0361,-2.0384,-2.0426,-2.049,-2.0519,-2.051,-2.0611,-2.0584,-2.0587,-2.0591,-2.0626,-2.0634,-2.0641,-2.0545,-2.0544,-2.0544,0,0,-2.0093,-2.0123,-2.017,-2.02,-2.0244,-2.0263,-2.0275,-2.0319,-2.0335,-2.0394,-2.0398,-2.0437,-2.0512,-2.0542,-2.0567,-2.0633,-2.0634,-2.0646,-2.0673,-2.0708,-2.0714,-2.0721,-2.0744,-2.0752,-2.0652,-2.0652,-2.0652,0,-2.011,-2.0176,-2.0195,-2.0242,-2.0269,-2.0275,-2.0323,-2.0351,-2.0407,-2.0425,-2.0415,-2.0509,-2.0538,-2.0607,-2.0624,-2.0644,-2.0657,-2.0641,-2.0712,-2.0718,-2.0724,-2.0746,-2.0755,-2.0653,-2.0653,-2.0653,-2.0653,0,-2.0195,-2.024,-2.0274,-2.0327,-2.0358,-2.0406,-2.0431,-2.046,-2.0468,-2.0488,-2.0548,-2.0583,-2.0633,-2.065,-2.0659,-2.0721,-2.0714,-2.0708,-2.0688,-2.0734,-2.0755,-2.0763,-2.0655,-2.0654,-2.0654,-2.0654,0,0,-2.0255,-2.0318,-2.033,-2.0354,-2.0403,-2.0438,-2.0486,-2.0534,-2.0558,-2.0597,-2.0636,-2.07,-2.0694,-2.0722,-2.0734,-2.0764,-2.0814,-2.0754,-2.0755,-2.0763,-2.0884,-2.0888,-2.0897,-2.0815,-2.0817,-2.0818,-2.088,0,-2.0316,-2.04,-2.0418,-2.049,-2.0532,-2.0539,-2.058,-2.0614,-2.0635,-2.0673,-2.0695,-2.0739,-2.0729,-2.0746,-2.0776,-2.0801,-2.0838,-2.0797,-2.0852,-2.0853,-2.084,-2.0909,-2.0913,-2.097,-2.0889,-2.089,-2.0891,0,-2.0397,-2.0437,-2.0514,-2.0556,-2.0575,-2.0611,-2.0656,-2.0693,-2.0732,-2.0745,-2.0776,-2.0785,-2.0834,-2.0813,-2.088,-2.0852,-2.0876,-2.0891,-2.0894,-2.0899,-2.0874,-2.0915,-2.0989,-2.0997,-2.0904,-2.0903,-2.0902,0,-2.0432,-2.0505,-2.056,-2.0581,-2.0632,-2.0658,-2.068,-2.0718,-2.0745,-2.0785,-2.0803,-2.0848,-2.0872,-2.0907,-2.0927,-2.091,-2.0993,-2.0973,-2.1004,-2.1004,-2.1021,-2.1019,-2.1099,-2.1037,-2.1037,-2.1037,-2.1037,0,-2.0497,-2.0544,-2.0577,-2.0611,-2.0663,-2.0683,-2.0734,-2.0756,-2.079,-2.0828,-2.0836,-2.0872,-2.0897,-2.0936,-2.0952,-2.1005,-2.1017,-2.1028,-2.1031,-2.1027,-2.1025,-2.1042,-2.1038,-2.1039,-2.1039,-2.1038,-2.1038,0,-2.0546,-2.057,-2.063,-2.0674,-2.0686,-2.0722,-2.0759,-2.0792,-2.0813,-2.0861,-2.0873,-2.0905,-2.0952,-2.0975,-2.1033,-2.1044,-2.1104,-2.1105,-2.109,-2.1092,-2.1121,-2.1117,-2.1213,-2.1226,-2.1157,-2.1157,-2.1158,0,-2.0585,-2.0621,-2.0668,-2.0694,-2.0717,-2.0759,-2.0787,-2.0808,-2.0837,-2.0884,-2.0911,-2.0958,-2.0996,-2.107,-2.1098,-2.1143,-2.1145,-2.1175,-2.1152,-2.1145,-2.1144,-2.1142,-2.1145,-2.1179,-2.118,-2.1181,-2.1181,0,-2.0652,-2.0662,-2.0702,-2.0747,-2.078,-2.0815,-2.0851,-2.0872,-2.0898,-2.093,-2.0978,-2.1007,-2.1066,-2.1112,-2.1159,-2.1182,-2.1186,-2.1188,-2.1198,-2.1193,-2.1182,-2.1188,-2.1101,-2.1186,-2.1185,-2.1185,-2.1185,-2.1185,-2.0697,-2.0729,-2.0767,-2.0811,-2.084,-2.0872,-2.0905,-2.0929,-2.0969,-2.1019,-2.1029,-2.1079,-2.1116,-2.1179,-2.1203,-2.1243,-2.1236,-2.125,-2.1253,-2.1256,-2.1257,-2.1177,-2.1251,-2.1251,-2.1251,-2.1251,-2.1251,0,-2.0764,-2.0789,-2.0829,-2.0878,-2.0913,-2.0913,-2.0952,-2.0981,-2.1025,-2.106,-2.1097,-2.1151,-2.1196,-2.1228,-2.1273,-2.1298,-2.1301,-2.131,-2.1308,-2.1313,-2.1261,-2.1248,-2.1306,-2.1306,-2.1306,-2.1306,-2.1306,-2.1306,-2.0803,-2.0857,-2.0871,-2.0939,-2.0963,-2.1012,-2.1034,-2.1064,-2.1092,-2.1152,-2.1189,-2.1209,-2.1243,-2.1291,-2.1331,-2.134,-2.1356,-2.1364,-2.1372,-2.1322,-2.1316,-2.1311,-2.1299,-2.1367,-2.1367,-2.1421,-2.1421,-2.1421]}]]